Tracking 29068 objects as of 20-Jul-2024
HD Live streaming from Space Station
objects crossing your sky now

SMDC ONE 1.1

Track SMDC ONE 1.1 now!
10-day predictions
SMDC ONE 1.1 is classified as:


NORAD ID: 38766
Int'l Code: 2012-048J
Perigee: 448.1 km
Apogee: 585.7 km
Inclination: 64.7 °
Period: 94.8 minutes
Semi major axis: 6887 km
RCS: Unknown
Launch date: September 13, 2012
Source: United States (US)
Launch site: AIR FORCE WESTERN TEST RANGE (AFWTR)
Your satellite tracking list
Your tracking list is empty




NASA's NSSDC Master Catalog

Two Line Element Set (TLE):
1 38766U 12048J   24201.25858960  .00038542  00000-0  16209-2 0  9999
2 38766  64.6509 166.1867 0099917   4.2570 355.9380 15.18695887 12868
Source of the keplerian elements: AFSPC